STARLINK-34963

Satellite information

Favourite Embed

Satellite Type and Status

PAYLOADIN ORBIT

Key statistics

Satellite STARLINK-34963 at a glance.

Uptime

30

Days in orbit

Revolutions

≈ 15.4

Per day

Orbit

SSO

Sun Synchronous Orbit

Inclination

97.6

Latest

Satellite identification and parameters

Extended collection of information and parameters for STARLINK-34963.

Object identification

Identified? True

Debris? False

Object name: STARLINK-34963

International designator: 2025-179H

Object number (NORAD): 65242

Object ID (CCSDS): 65242

Country: UNITED STATES OF AMERICA (US)

Current information (Y/N): Y

RCS size: LARGE

Orbital parameters

Period: 93.485 minutes

Inclination: 97.6043 deg

SMA: 6823.201 km

Apoapsis: 446.266 km

Periapsis: 443.866 km

RAAN: 300.91 deg

Eccentricy: 0.00017581

Argument of periapsis: 83.6404 deg

Mean anomaly: 220.5207 deg

Mean motion: 15.40353882 rev/day

Mean motion (dot): -0.01379349 rev/day2

B* drag term: -0.037532462 1/REarth

Two-line elements (TLE)

Creation date: Sept. 16, 2025, 7:42 p.m.

Reference frame: TEME

Reference center: EARTH

Epoch: Sept. 16, 2025, 2 p.m. UTC

TLE line 0: 0 STARLINK-34963

TLE line 1: 1 65242U 25179H 25259.58337963 -.01379349 00000-0 -37532-1 0 9999

TLE line 2: 2 65242 97.6043 300.9100 0001758 83.6404 220.5207 15.40353882 5753

Live tracking on map

Real-time ground track for satellite STARLINK-34963.

In-orbit conjunctions

There are no conjunctions computed for STARLINK-34963, at the moment. Check back to stay up to date, as we update our databases every day.

Go to all conjunctions

Associated space launch

A batch of 24 satellites for the Starlink mega-constellation - SpaceX's project for space-based Internet communication system.

STARLINK-34963 was lifted into orbit during the mission ‘Falcon 9 Block 5 | Starlink Group 17-5’, on board a Falcon 9 space rocket.

The launch took place on Aug. 18, 2025, 4:26 p.m. from Space Launch Complex 4E.

For more information about the launch, click the button.

Launch to space Falcon 9 Block 5 | Starlink Group 17-5
Falcon 9 Block 5 | Starlink Group 17-5

Agency: SpaceX

Status: Launch Successful

Launch date: Aug. 18, 2025, 4:26 p.m. UTC

Rocket: Falcon 9

Launch pad: Space Launch Complex 4E

Location: Vandenberg SFB, CA, USA

...

Latest news about this satellite

News about space launch
Rocket Report: Pivotal Starship test on tap, Firefly wants to be big in Japan

Starship returns to the launch pad for the first time in three months.

News about space launch
Starlink Doubles Up, ISS Gets A New Booster, X-37B Returns, and Starship is GO For Launch This Week

Starlink Doubles Up, ISS Gets A New Booster, X-37B Returns, and Starship is GO For Launch This Week

News about space launch
Live coverage: 24 Starlink satellites to launch from California on 100th Falcon 9 rocket of the year

The Starlink 17-5 mission will add another 24 broadband satellites to the company’s constellation of more than 8,100 currently in orbit. SpaceX is targeting liftoff from pad 4E at 9:23 a.m. PDT (12:23 p.m. EDT / 1623 UTC).


Newsletter sign-up

Weekly statistics, charts and insights to help you stay on top of the space industry.